| time (UTC) | temp F | wind direction | speed MPH | gust MPH | rain 1hr in | rain 24hr in | rain mn in | humidity % | barometer mb |
| 20260902223040 | 89 | 212 | 9.0 | 14.0 | 0.00 | 0.00 | 0.00 | 44 | 1012.8 |
| 20260902221539 | 90 | 231 | 6.0 | 11.0 | 0.00 | 0.00 | 0.00 | 44 | 1012.8 |
| 20260902220040 | 90 | 242 | 9.0 | 15.0 | 0.00 | 0.00 | 0.00 | 44 | 1013.1 |
| 20260902214537 | 90 | 252 | 8.0 | 11.0 | 0.00 | 0.00 | 0.00 | 43 | 1013.3 |
| 20260902213036 | 91 | 238 | 6.0 | 12.0 | 0.00 | 0.00 | 0.00 | 42 | 1013.2 |
| 20260902211537 | 91 | 246 | 7.0 | 16.0 | 0.00 | 0.00 | 0.00 | 41 | 1013.1 |
| 20260902210035 | 91 | 254 | 8.0 | 14.0 | 0.00 | 0.00 | 0.00 | 41 | 1013.1 |
| 20260902204533 | 91 | 220 | 6.0 | 10.0 | 0.00 | 0.00 | 0.00 | 42 | 1013.2 |
| 20260902203030 | 91 | 196 | 6.0 | 11.0 | 0.00 | 0.00 | 0.00 | 43 | 1013.3 |
| 20260902201530 | 91 | 263 | 6.0 | 12.0 | 0.00 | 0.00 | 0.00 | 42 | 1013.6 |
| 20260902200030 | 91 | 240 | 9.0 | 14.0 | 0.00 | 0.00 | 0.00 | 41 | 1013.6 |
| 20260902194530 | 90 | 262 | 7.0 | 12.0 | 0.00 | 0.00 | 0.00 | 43 | 1013.6 |
| 20260902193025 | 91 | 223 | 9.0 | 14.0 | 0.00 | 0.00 | 0.00 | 43 | 1013.7 |
| 20260902191522 | 90 | 263 | 4.0 | 8.0 | 0.00 | 0.00 | 0.00 | 45 | 1014.0 |
| 20260902190025 | 90 | 311 | 3.0 | 7.0 | 0.00 | 0.00 | 0.00 | 46 | 1014.3 |
| 20260902184516 | 89 | 242 | 6.0 | 12.0 | 0.00 | 0.00 | 0.00 | 47 | 1014.5 |
| 20260902183020 | 89 | 231 | 4.0 | 11.0 | 0.00 | 0.00 | 0.00 | 47 | 1014.6 |
| 20260902181517 | 89 | 213 | 4.0 | 9.0 | 0.00 | 0.00 | 0.00 | 48 | 1014.7 |
| 20260902180013 | 89 | 245 | 5.0 | 15.0 | 0.00 | 0.00 | 0.00 | 48 | 1014.7 |
| 20260902174511 | 91 | 265 | 2.0 | 10.0 | 0.00 | 0.00 | 0.00 | 47 | 1014.7 |
| 20260902173009 | 89 | 244 | 5.0 | 10.0 | 0.00 | 0.00 | 0.00 | 48 | 1015.0 |
| 20260902171507 | 89 | 172 | 3.0 | 10.0 | 0.00 | 0.00 | 0.00 | 49 | 1014.9 |
| 20260902170006 | 89 | 211 | 5.0 | 10.0 | 0.00 | 0.00 | 0.00 | 49 | 1015.0 |
| 20260902164502 | 88 | 227 | 4.0 | 11.0 | 0.00 | 0.00 | 0.00 | 51 | 1015.2 |
| 20260902163059 | 88 | 209 | 6.0 | 11.0 | 0.00 | 0.00 | 0.00 | 52 | 1015.2 |
| 20260902161555 | 87 | 291 | 4.0 | 11.0 | 0.00 | 0.00 | 0.00 | 54 | 1015.3 |
| 20260902160112 | 87 | 230 | 6.0 | 10.0 | 0.00 | 0.00 | 0.00 | 53 | 1015.4 |
| 20260902154556 | 86 | 263 | 3.0 | 9.0 | 0.00 | 0.00 | 0.00 | 54 | 1015.5 |
| 20260902153049 | 85 | 251 | 6.0 | 10.0 | 0.00 | 0.00 | 0.00 | 54 | 1015.4 |
| 20260902151543 | 85 | 267 | 4.0 | 9.0 | 0.00 | 0.00 | 0.00 | 56 | 1015.5 |
| 20260902150040 | 84 | 236 | 3.0 | 9.0 | 0.00 | 0.00 | 0.00 | 56 | 1015.8 |
| 20260902144540 | 83 | 254 | 4.0 | 7.0 | 0.00 | 0.00 | 0.00 | 57 | 1015.6 |
| 20260902143033 | 82 | 269 | 4.0 | 9.0 | 0.00 | 0.00 | 0.00 | 59 | 1015.5 |
| 20260902141529 | 81 | 318 | 4.0 | 9.0 | 0.00 | 0.00 | 0.00 | 58 | 1015.7 |
| 20260902140034 | 80 | 219 | 5.0 | 10.0 | 0.00 | 0.00 | 0.00 | 60 | 1015.7 |
| 20260902134522 | 78 | 238 | 6.0 | 10.0 | 0.00 | 0.00 | 0.00 | 61 | 1015.6 |
| 20260902133018 | 77 | 270 | 6.0 | 10.0 | 0.00 | 0.00 | 0.00 | 64 | 1015.5 |
| 20260902131513 | 76 | 241 | 3.0 | 10.0 | 0.00 | 0.00 | 0.00 | 66 | 1016.1 |
| 20260902130012 | 76 | 227 | 3.0 | 5.0 | 0.00 | 0.00 | 0.00 | 68 | 1015.6 |
| 20260902124511 | 75 | 360 | 2.0 | 3.0 | 0.00 | 0.00 | 0.00 | 70 | 1016.0 |
| 20260902123017 | 74 | 360 | 0.0 | 3.0 | 0.00 | 0.00 | 0.00 | 71 | 1015.7 |
| 20260902121501 | 74 | 360 | 0.0 | 2.0 | 0.00 | 0.00 | 0.00 | 73 | 1015.7 |
| 20260902120058 | 74 | 360 | 1.0 | 5.0 | 0.00 | 0.00 | 0.00 | 74 | 1015.6 |
| 20260902114559 | 73 | 360 | 1.0 | 4.0 | 0.00 | 0.00 | 0.00 | 75 | 1015.0 |
| 20260902113053 | 73 | 360 | 0.0 | 3.0 | 0.00 | 0.00 | 0.00 | 75 | 1015.0 |
| 20260902111552 | 73 | 360 | 2.0 | 5.0 | 0.00 | 0.00 | 0.00 | 75 | 1015.0 |
| 20260902110100 | 73 | 360 | 2.0 | 4.0 | 0.00 | 0.00 | 0.00 | 75 | 1015.0 |
| 20260902104553 | 72 | 360 | 2.0 | 6.0 | 0.00 | 0.00 | 0.00 | 76 | 1014.7 |
| 20260902103046 | 72 | 360 | 0.0 | 3.0 | 0.00 | 0.00 | 0.00 | 75 | 1014.6 |
| 20260902101547 | 72 | 360 | 0.0 | 4.0 | 0.00 | 0.00 | 0.00 | 75 | 1014.8 |
| 20260902100045 | 72 | 360 | 0.0 | 2.0 | 0.00 | 0.00 | 0.00 | 73 | 1014.7 |
| 20260902094548 | 72 | 360 | 0.0 | 2.0 | 0.00 | 0.00 | 0.00 | 73 | 1014.9 |
| 20260902093045 | 72 | 360 | 0.0 | 1.0 | 0.00 | 0.00 | 0.00 | 72 | 1015.1 |
| 20260902091541 | 72 | 360 | 0.0 | 0.0 | 0.00 | 0.00 | 0.00 | 72 | 1015.1 |
| 20260902090043 | 72 | 360 | 0.0 | 2.0 | 0.00 | 0.00 | 0.00 | 71 | 1014.9 |
| 20260902084543 | 72 | 360 | 0.0 | 3.0 | 0.00 | 0.00 | 0.00 | 70 | 1014.8 |
| 20260902083039 | 73 | 360 | 0.0 | 2.0 | 0.00 | 0.00 | 0.00 | 69 | 1014.8 |
| 20260902081537 | 73 | 360 | 0.0 | 2.0 | 0.00 | 0.00 | 0.00 | 68 | 1014.8 |
| 20260902080136 | 73 | 360 | 0.0 | 2.0 | 0.00 | 0.00 | 0.00 | 68 | 1015.0 |
| 20260902074535 | 74 | 360 | 1.0 | 4.0 | 0.00 | 0.00 | 0.00 | 67 | 1014.9 |
| 20260902073035 | 74 | 360 | 0.0 | 1.0 | 0.00 | 0.00 | 0.00 | 66 | 1015.0 |
| 20260902071536 | 74 | 360 | 1.0 | 5.0 | 0.00 | 0.00 | 0.00 | 66 | 1015.1 |
| 20260902070031 | 74 | 360 | 0.0 | 4.0 | 0.00 | 0.00 | 0.00 | 66 | 1015.1 |
| 20260902064531 | 75 | 360 | 1.0 | 6.0 | 0.00 | 0.00 | 0.00 | 66 | 1015.0 |
| 20260902063032 | 74 | 360 | 0.0 | 2.0 | 0.00 | 0.00 | 0.00 | 65 | 1015.0 |
| 20260902061540 | 74 | 360 | 1.0 | 4.0 | 0.00 | 0.00 | 0.00 | 65 | 1014.9 |
| 20260902060033 | 74 | 360 | 0.0 | 3.0 | 0.00 | 0.00 | 0.00 | 65 | 1014.8 |
| 20260902054539 | 75 | 360 | 0.0 | 2.0 | 0.00 | 0.00 | 0.00 | 64 | 1014.7 |
| 20260902053024 | 75 | 360 | 2.0 | 5.0 | 0.00 | 0.00 | 0.00 | 65 | 1014.7 |
| 20260902051519 | 75 | 360 | 0.0 | 2.0 | 0.00 | 0.00 | 0.00 | 64 | 1014.8 |
| 20260902050018 | 75 | 360 | 0.0 | 2.0 | 0.00 | 0.00 | 0.00 | 64 | 1014.6 |
| 20260902044516 | 75 | 360 | 0.0 | 3.0 | 0.00 | 0.00 | 0.00 | 63 | 1014.7 |
| 20260902043017 | 75 | 360 | 0.0 | 2.0 | 0.00 | 0.00 | 0.00 | 63 | 1014.6 |
| 20260902041513 | 76 | 360 | 0.0 | 2.0 | 0.00 | 0.00 | 0.00 | 63 | 1014.6 |
| 20260902040012 | 76 | 360 | 0.0 | 2.0 | 0.00 | 0.00 | 0.00 | 62 | 1014.4 |
| 20260902034512 | 76 | 360 | 1.0 | 4.0 | 0.00 | 0.00 | 0.00 | 62 | 1014.4 |
| 20260902033115 | 77 | 360 | 0.0 | 3.0 | 0.00 | 0.00 | 0.00 | 61 | 1014.3 |
| 20260902031508 | 77 | 360 | 1.0 | 6.0 | 0.00 | 0.00 | 0.00 | 61 | 1014.4 |
| 20260902030008 | 77 | 360 | 1.0 | 6.0 | 0.00 | 0.00 | 0.00 | 60 | 1014.7 |
| 20260902024507 | 77 | 360 | 3.0 | 9.0 | 0.00 | 0.00 | 0.00 | 60 | 1014.7 |
| 20260902023006 | 77 | 360 | 5.0 | 11.0 | 0.00 | 0.00 | 0.00 | 60 | 1014.6 |
| 20260902021514 | 77 | 360 | 5.0 | 9.0 | 0.00 | 0.00 | 0.00 | 60 | 1014.6 |
| 20260902020006 | 78 | 360 | 4.0 | 9.0 | 0.00 | 0.00 | 0.00 | 59 | 1014.4 |
| 20260902014512 | 78 | 360 | 3.0 | 5.0 | 0.00 | 0.00 | 0.00 | 59 | 1014.3 |
| 20260902013004 | 79 | 360 | 1.0 | 6.0 | 0.00 | 0.00 | 0.00 | 58 | 1014.2 |
| 20260902011504 | 79 | 360 | 2.0 | 5.0 | 0.00 | 0.00 | 0.00 | 57 | 1014.0 |
| 20260902010003 | 80 | 360 | 3.0 | 6.0 | 0.00 | 0.00 | 0.00 | 56 | 1013.9 |
| 20260902004505 | 80 | 360 | 3.0 | 6.0 | 0.00 | 0.00 | 0.00 | 56 | 1013.9 |
| 20260902003003 | 81 | 360 | 4.0 | 9.0 | 0.00 | 0.00 | 0.00 | 55 | 1014.0 |
| 20260902001502 | 81 | 360 | 5.0 | 12.0 | 0.00 | 0.00 | 0.00 | 55 | 1013.9 |
| 20260901234609 | 82 | 360 | 3.0 | 6.0 | 0.00 | 0.00 | 0.00 | 55 | 1014.1 |
| 20260901233110 | 82 | 255 | 4.0 | 12.0 | 0.00 | 0.00 | 0.00 | 54 | 1014.1 |
| 20260901231600 | 83 | 281 | 4.0 | 11.0 | 0.00 | 0.00 | 0.00 | 53 | 1013.8 |
| 20260901230058 | 84 | 207 | 4.0 | 14.0 | 0.00 | 0.00 | 0.00 | 52 | 1013.7 |
| 20260901224558 | 84 | 223 | 7.0 | 12.0 | 0.00 | 0.00 | 0.00 | 51 | 1014.0 |